Weather in Pozhnya

Russia / Tver Oblast     56°38′33″N   31°25′13″E
temp.,
°C
wind,
m/s
gust,
m/s
humid.,
%
clouds,
%
prec.,
mm/h
press.,
hPa
HPBL,
m
17 april, sat
sat1700:00+8ene51382100 0.1 1022561
03:00+7ene51282100 0.1 1022492
06:00+6ene4128090 0.0 1022464
09:00+8ene4977100 0.0 1023497
12:00+12ene4668100 0.1 1023822
15:00+13ene5762100 0.3 10231260
18:00+13ene486598 0.0 1022729
21:00+10ene4127134 0.0 1022534
18 april, sun
sun1800:00+8ene413685 0.0 1023495
03:00+6ne4136798 0.0 1023430
06:00+5ne51372100 0.0 1023469
09:00+9ene511615 0.0 1023673
12:00+12ene57465 0.0 10231451
15:00+14ene57395 0.0 10231959
18:00+13ene47445 0.0 10231987
21:00+8ne39665 0.0 1024215
19 april, mon
mon1900:00+6ene412705 0.0 1025422
03:00+5ene310815 0.0 1026289
06:00+4ene39875 0.0 1026265
09:00+7ene477216 0.0 1026556
12:00+11ene455483 0.0 10251528
15:00+11ese565472 0.1 10251426
18:00+8e466699 0.1 1025893
21:00+7ene3870100 0.1 1025535
20 april, tue
tue2000:00+6e3767100 0.0 1025831
03:00+3ene3878100 0.0 1024337
06:00+2ene310795 0.0 1023450
09:00+5e485985 0.0 1022766
12:00+7e5756100 0.0 10201234
15:00+5e5880100 0.0 1020859
18:00+3ene31096100 0.1 1018539
21:00+3ene31196100 2.2 1016719
21 april, wed
wed2100:00+4ene4997100 0.8 1013777
03:00+4ne41097100 3.5 1008814
06:00+2ne41197100 5.3 1005732
09:00+2ne3997100 8.8 1003502
12:00+2n2699100 2.0 1002300
15:00+2nnw2599100 4.9 1002263
18:00+1w3798100 1.9 1003361
21:00+1w4998100 4.3 1005440